owner,sensor,date,latitude,longitude,vertical_datum,wind_speed,wind_to_direction,wind_speed_of_gust,qcFlag 
TABS,ioos:station:TABS:H:1,2005-08-27T18:00:00Z,27.8674,-96.5433,4.0,2.765248633,55.9073206,3.51,'11111222,11111222,11111222' 
TABS,ioos:station:TABS:H:1,2005-08-27T18:30:00Z,27.8674,-96.5433,4.0,2.766315239,46.90395315,3.85,'11111222,11111222,11111222' 
TABS,ioos:station:TABS:H:1,2005-08-27T19:00:00Z,27.8674,-96.5433,4.0,2.092008604,37.03392837,2.95,'11111222,11111222,11111222' 
TABS,ioos:station:TABS:H:1,2005-08-27T19:30:00Z,27.8674,-96.5433,4.0,1.883666637,57.5751204,2.92,'11111222,11111222,11111222' 
TABS,ioos:station:TABS:H:1,2005-08-27T20:00:00Z,27.8674,-96.5433,4.0,1.748971126,48.01246477,2.55,'11111222,11111222,11111222' 
TABS,ioos:station:TABS:H:1,2005-08-27T20:30:00Z,27.8674,-96.5433,4.0,1.749285568,59.03589496,2.97,'11111222,11111222,11111222' 
TABS,ioos:station:TABS:H:1,2005-08-27T21:00:00Z,27.8674,-96.5433,4.0,2.353040586,70.64063018,3.19,'11111222,11111222,11111222' 
TABS,ioos:station:TABS:H:1,2005-08-27T21:30:00Z,27.8674,-96.5433,4.0,3.095835913,93.51902415,3.74,'11111222,11111222,11111222' 
TABS,ioos:station:TABS:H:1,2005-08-27T22:00:00Z,27.8674,-96.5433,4.0,3.375159256,101.2770349,4.18,'11111222,11111222,11111222' 
TABS,ioos:station:TABS:H:1,2005-08-27T22:30:00Z,27.8674,-96.5433,4.0,4.033422864,110.0077534,4.74,'11111222,11111222,11111222' 
TABS,ioos:station:TABS:H:1,2005-08-27T23:00:00Z,27.8674,-96.5433,4.0,4.209750586,113.5206386,4.98,'11111222,11111222,11111222' 
TABS,ioos:station:TABS:H:1,2005-08-27T23:30:00Z,27.8674,-96.5433,4.0,3.957903485,116.2417092,4.73,'11111222,11111222,11111222' 
TABS,ioos:station:TABS:H:1,2005-08-28T00:00:00Z,27.8674,-96.5433,4.0,4.096828041,117.315965,4.85,'11111222,11111222,11111222' 
TABS,ioos:station:TABS:H:1,2005-08-28T00:30:00Z,27.8674,-96.5433,4.0,4.437983776,119.5690867,5.27,'11111222,11111222,11111222' 
TABS,ioos:station:TABS:H:1,2005-08-28T01:00:00Z,27.8674,-96.5433,4.0,4.709182519,114.061682,5.6,'11111222,11111222,11111222' 
TABS,ioos:station:TABS:H:1,2005-08-28T01:30:00Z,27.8674,-96.5433,4.0,5.29555474,115.7428094,6.23,'11111222,11111222,11111222' 
TABS,ioos:station:TABS:H:1,2005-08-28T02:00:00Z,27.8674,-96.5433,4.0,4.83011387,117.0959101,5.96,'11111222,11111222,11111222' 
TABS,ioos:station:TABS:H:1,2005-08-28T02:30:00Z,27.8674,-96.5433,4.0,4.951040295,111.0711169,5.83,'11111222,11111222,11111222' 
TABS,ioos:station:TABS:H:1,2005-08-28T03:00:00Z,27.8674,-96.5433,4.0,4.701340234,115.3117567,5.58,'11111222,11111222,11111222' 
TABS,ioos:station:TABS:H:1,2005-08-28T03:30:00Z,27.8674,-96.5433,4.0,4.620270555,117.4527837,5.55,'11111222,11111222,11111222' 
TABS,ioos:station:TABS:H:1,2005-08-28T04:00:00Z,27.8674,-96.5433,4.0,3.082401661,106.201106,3.82,'11111222,11111222,11111222' 
TABS,ioos:station:TABS:H:1,2005-08-28T04:30:00Z,27.8674,-96.5433,4.0,3.394186206,121.6299669,4.1,'11111222,11111222,11111222' 
TABS,ioos:station:TABS:H:1,2005-08-28T05:00:00Z,27.8674,-96.5433,4.0,3.073271872,121.1559424,4.01,'11111222,11111222,11111222' 
TABS,ioos:station:TABS:H:1,2005-08-28T05:30:00Z,27.8674,-96.5433,4.0,3.040690711,134.4673483,3.93,'11111222,11111222,11111222' 
TABS,ioos:station:TABS:H:1,2005-08-28T06:00:00Z,27.8674,-96.5433,4.0,2.040122545,114.9324238,2.75,'11111222,11111222,11111222' 
TABS,ioos:station:TABS:H:1,2005-08-28T06:30:00Z,27.8674,-96.5433,4.0,2.3157936,96.69578804,3.46,'11111222,11111222,11111222' 
TABS,ioos:station:TABS:H:1,2005-08-28T07:00:00Z,27.8674,-96.5433,4.0,2.031575743,87.74279043,2.72,'11111222,11111222,11111222' 
TABS,ioos:station:TABS:H:1,2005-08-28T07:30:00Z,27.8674,-96.5433,4.0,1.769180601,79.57889105,2.31,'11111222,11111222,11111222' 
TABS,ioos:station:TABS:H:1,2005-08-28T08:00:00Z,27.8674,-96.5433,4.0,2.240557966,63.20586611,2.94,'11111222,11111222,11111222' 
TABS,ioos:station:TABS:H:1,2005-08-28T08:30:00Z,27.8674,-96.5433,4.0,4.315611197,26.5647786,6.44,'11111222,11111222,11111222' 
TABS,ioos:station:TABS:H:1,2005-08-28T09:00:00Z,27.8674,-96.5433,4.0,11.12140729,40.07571471,13.5,'11111222,11111222,11111222' 
TABS,ioos:station:TABS:H:1,2005-08-28T09:30:00Z,27.8674,-96.5433,4.0,11.27461751,73.13974597,13.04,'11111222,11111222,11111222' 
TABS,ioos:station:TABS:H:1,2005-08-28T10:00:00Z,27.8674,-96.5433,4.0,12.25253035,94.77570166,15.57,'11111222,11111222,11111222' 
TABS,ioos:station:TABS:H:1,2005-08-28T10:30:00Z,27.8674,-96.5433,4.0,8.706285086,97.59069771,10.5,'11111222,11111222,11111222' 
TABS,ioos:station:TABS:H:1,2005-08-28T11:00:00Z,27.8674,-96.5433,4.0,4.59303821,109.8555889,5.97,'11111222,11111222,11111222' 
TABS,ioos:station:TABS:H:1,2005-08-28T11:30:00Z,27.8674,-96.5433,4.0,3.013851357,107.7740212,4.44,'11111222,11111222,11111222' 
TABS,ioos:station:TABS:H:1,2005-08-28T12:00:00Z,27.8674,-96.5433,4.0,0.90354856,117.699829,2.48,'11111222,11111222,11111222' 
TABS,ioos:station:TABS:H:1,2005-08-28T12:30:00Z,27.8674,-96.5433,4.0,1.40431478,278.1877829,2.44,'11111222,11111222,11111222' 
TABS,ioos:station:TABS:H:1,2005-08-28T13:00:00Z,27.8674,-96.5433,4.0,2.439446659,308.843122,3.45,'11111222,11111222,11111222' 
TABS,ioos:station:TABS:H:1,2005-08-28T13:30:00Z,27.8674,-96.5433,4.0,1.812760326,328.7650779,2.65,'11111222,11111222,11111222' 
TABS,ioos:station:TABS:H:1,2005-08-28T14:00:00Z,27.8674,-96.5433,4.0,2.512866889,14.75492326,3.37,'11111222,11111222,11111222' 
TABS,ioos:station:TABS:H:1,2005-08-28T14:30:00Z,27.8674,-96.5433,4.0,3.652615501,42.33668977,4.41,'11111222,11111222,11111222' 
TABS,ioos:station:TABS:H:1,2005-08-28T15:00:00Z,27.8674,-96.5433,4.0,6.970867952,0.903949919,8.26,'11111222,11111222,11111222' 
TABS,ioos:station:TABS:H:1,2005-08-28T15:30:00Z,27.8674,-96.5433,4.0,7.474202299,10.87370983,8.79,'11111222,11111222,11111222' 
TABS,ioos:station:TABS:H:1,2005-08-28T16:00:00Z,27.8674,-96.5433,4.0,7.619619413,16.38929155,8.91,'11111222,11111222,11111222' 
TABS,ioos:station:TABS:H:1,2005-08-28T16:30:00Z,27.8674,-96.5433,4.0,8.064322662,20.16495163,9.28,'11111222,11111222,11111222' 
TABS,ioos:station:TABS:H:1,2005-08-28T17:00:00Z,27.8674,-96.5433,4.0,7.202846659,10.15520103,8.67,'11111222,11111222,11111222' 
TABS,ioos:station:TABS:H:1,2005-08-28T17:30:00Z,27.8674,-96.5433,4.0,6.527388452,15.82457669,8.46,'11111222,11111222,11111222' 
TABS,ioos:station:TABS:H:1,2005-08-28T18:00:00Z,27.8674,-96.5433,4.0,7.283858867,11.0011598,9.0,'11111222,11111222,11111222' 
TABS,ioos:station:TABS:H:1,2005-08-28T18:30:00Z,27.8674,-96.5433,4.0,7.184010022,16.16425089,8.43,'11111222,11111222,11111222' 
TABS,ioos:station:TABS:H:1,2005-08-28T19:00:00Z,27.8674,-96.5433,4.0,6.598492252,31.93146499,7.72,'11111222,11111222,11111222' 
TABS,ioos:station:TABS:H:1,2005-08-28T19:30:00Z,27.8674,-96.5433,4.0,6.214217569,37.34905125,7.64,'11111222,11111222,11111222' 
TABS,ioos:station:TABS:H:1,2005-08-28T20:00:00Z,27.8674,-96.5433,4.0,5.982081578,47.77753116,7.44,'11111222,11111222,11111222' 
TABS,ioos:station:TABS:H:1,2005-08-28T20:30:00Z,27.8674,-96.5433,4.0,6.529931087,49.96941342,7.7,'11111222,11111222,11111222' 
TABS,ioos:station:TABS:H:1,2005-08-28T21:00:00Z,27.8674,-96.5433,4.0,6.047024061,40.90930364,7.03,'11111222,11111222,11111222' 
TABS,ioos:station:TABS:H:1,2005-08-28T21:30:00Z,27.8674,-96.5433,4.0,6.201370816,42.25473484,7.58,'11111222,11111222,11111222' 
TABS,ioos:station:TABS:H:1,2005-08-28T22:00:00Z,27.8674,-96.5433,4.0,4.663142717,40.04124499,5.41,'11111222,11111222,11111222' 
TABS,ioos:station:TABS:H:1,2005-08-28T22:30:00Z,27.8674,-96.5433,4.0,4.076714363,39.62531951,5.12,'11111222,11111222,11111222' 
TABS,ioos:station:TABS:H:1,2005-08-28T23:00:00Z,27.8674,-96.5433,4.0,3.331741286,43.41867723,4.02,'11111222,11111222,11111222' 
TABS,ioos:station:TABS:H:1,2005-08-28T23:30:00Z,27.8674,-96.5433,4.0,2.972002692,42.81804801,3.69,'11111222,11111222,11111222' 
TABS,ioos:station:TABS:H:1,2005-08-29T00:00:00Z,27.8674,-96.5433,4.0,2.962110734,56.14864794,3.89,'11111222,11111222,11111222' 
TABS,ioos:station:TABS:H:1,2005-08-29T00:30:00Z,27.8674,-96.5433,4.0,2.587856256,69.88410965,3.42,'11111222,11111222,11111222' 
TABS,ioos:station:TABS:H:1,2005-08-29T01:00:00Z,27.8674,-96.5433,4.0,1.718196729,36.00256193,2.72,'11111222,11111222,11111222' 
TABS,ioos:station:TABS:H:1,2005-08-29T01:30:00Z,27.8674,-96.5433,4.0,1.006876358,34.4789246,1.72,'11111222,11111222,11111222' 
TABS,ioos:station:TABS:H:1,2005-08-29T02:00:00Z,27.8674,-96.5433,4.0,1.293213053,39.35145015,1.9,'11111222,11111222,11111222' 
TABS,ioos:station:TABS:H:1,2005-08-29T02:30:00Z,27.8674,-96.5433,4.0,0.908019824,53.50836773,1.75,'11111222,11111222,11111222' 
TABS,ioos:station:TABS:H:1,2005-08-29T03:00:00Z,27.8674,-96.5433,4.0,1.195533354,46.69432742,2.23,'11111222,11111222,11111222' 
TABS,ioos:station:TABS:H:1,2005-08-29T03:30:00Z,27.8674,-96.5433,4.0,1.2509996,50.83916297,2.17,'11111222,11111222,11111222' 
TABS,ioos:station:TABS:H:1,2005-08-29T04:00:00Z,27.8674,-96.5433,4.0,2.741277075,39.67146199,3.42,'11111222,11111222,11111222' 
TABS,ioos:station:TABS:H:1,2005-08-29T04:30:00Z,27.8674,-96.5433,4.0,2.280789337,54.63719989,3.27,'11111222,11111222,11111222' 
TABS,ioos:station:TABS:H:1,2005-08-29T05:00:00Z,27.8674,-96.5433,4.0,4.934136196,34.01184148,6.78,'11111222,11111222,11111222' 
TABS,ioos:station:TABS:H:1,2005-08-29T05:30:00Z,27.8674,-96.5433,4.0,5.153736509,29.3998663,6.01,'11111222,11111222,11111222' 
TABS,ioos:station:TABS:H:1,2005-08-29T06:00:00Z,27.8674,-96.5433,4.0,5.23742303,27.39651007,6.29,'11111222,11111222,11111222' 
TABS,ioos:station:TABS:H:1,2005-08-29T06:30:00Z,27.8674,-96.5433,4.0,4.61657882,7.217151823,5.67,'11111222,11111222,11111222' 
TABS,ioos:station:TABS:H:1,2005-08-29T07:00:00Z,27.8674,-96.5433,4.0,4.660236046,6.530046104,5.61,'11111222,11111222,11111222' 
TABS,ioos:station:TABS:H:1,2005-08-29T07:30:00Z,27.8674,-96.5433,4.0,4.249858821,348.8749634,6.49,'11111222,11111222,11111222' 
TABS,ioos:station:TABS:H:1,2005-08-29T08:00:00Z,27.8674,-96.5433,4.0,5.093996466,344.981464,6.68,'11111222,11111222,11111222' 
TABS,ioos:station:TABS:H:1,2005-08-29T08:30:00Z,27.8674,-96.5433,4.0,5.186800555,343.7661343,7.31,'11111222,11111222,11111222' 
TABS,ioos:station:TABS:H:1,2005-08-29T09:00:00Z,27.8674,-96.5433,4.0,6.116796547,346.1907611,8.09,'11111222,11111222,11111222' 
TABS,ioos:station:TABS:H:1,2005-08-29T09:30:00Z,27.8674,-96.5433,4.0,5.301367748,349.3469635,7.35,'11111222,11111222,11111222' 
TABS,ioos:station:TABS:H:1,2005-08-29T10:00:00Z,27.8674,-96.5433,4.0,6.080666082,356.6056711,7.67,'11111222,11111222,11111222' 
TABS,ioos:station:TABS:H:1,2005-08-29T10:30:00Z,27.8674,-96.5433,4.0,5.548333083,331.5871945,7.28,'11111222,11111222,11111222' 
TABS,ioos:station:TABS:H:1,2005-08-29T11:00:00Z,27.8674,-96.5433,4.0,5.791416062,352.3594006,7.25,'11111222,11111222,11111222' 
TABS,ioos:station:TABS:H:1,2005-08-29T11:30:00Z,27.8674,-96.5433,4.0,5.952218074,348.3689557,8.52,'11111222,11111222,11111222' 
TABS,ioos:station:TABS:H:1,2005-08-29T12:00:00Z,27.8674,-96.5433,4.0,6.135535836,337.7822472,8.09,'11111222,11111222,11111222' 
TABS,ioos:station:TABS:H:1,2005-08-29T12:30:00Z,27.8674,-96.5433,4.0,6.381112756,345.9418018,7.76,'11111222,11111222,11111222' 
TABS,ioos:station:TABS:H:1,2005-08-29T13:00:00Z,27.8674,-96.5433,4.0,5.735294238,331.9156153,8.23,'11111222,11111222,11111222' 
TABS,ioos:station:TABS:H:1,2005-08-29T13:30:00Z,27.8674,-96.5433,4.0,5.558282109,328.9123569,7.91,'11111222,11111222,11111222' 
TABS,ioos:station:TABS:H:1,2005-08-29T14:00:00Z,27.8674,-96.5433,4.0,5.976018742,330.0884903,7.68,'11111222,11111222,11111222' 
TABS,ioos:station:TABS:H:1,2005-08-29T14:30:00Z,27.8674,-96.5433,4.0,6.250383988,348.2763984,7.9,'11111222,11111222,11111222' 
TABS,ioos:station:TABS:H:1,2005-08-29T15:00:00Z,27.8674,-96.5433,4.0,6.234163938,344.9381632,7.95,'11111222,11111222,11111222' 
TABS,ioos:station:TABS:H:1,2005-08-29T15:30:00Z,27.8674,-96.5433,4.0,5.156442572,325.5085153,6.92,'11111222,11111222,11111222' 
TABS,ioos:station:TABS:H:1,2005-08-29T16:00:00Z,27.8674,-96.5433,4.0,5.522544703,315.2199794,7.21,'11111222,11111222,11111222' 
TABS,ioos:station:TABS:H:1,2005-08-29T16:30:00Z,27.8674,-96.5433,4.0,5.009590802,295.5419613,6.66,'11111222,11111222,11111222' 
TABS,ioos:station:TABS:H:1,2005-08-29T17:00:00Z,27.8674,-96.5433,4.0,4.6992127,288.7433584,6.25,'11111222,11111222,11111222' 
TABS,ioos:station:TABS:H:1,2005-08-29T17:30:00Z,27.8674,-96.5433,4.0,5.307372231,282.0721091,7.14,'11111222,11111222,11111222' 
TABS,ioos:station:TABS:H:1,2005-08-29T18:00:00Z,27.8674,-96.5433,4.0,4.811538216,282.3608701,6.31,'11111222,11111222,11111222' 
TABS,ioos:station:TABS:H:1,2005-08-29T18:30:00Z,27.8674,-96.5433,4.0,4.424522573,267.4092041,5.52,'11111222,11111222,11111222' 
TABS,ioos:station:TABS:H:1,2005-08-29T19:00:00Z,27.8674,-96.5433,4.0,3.651369606,268.4306489,4.86,'11111222,11111222,11111222' 
TABS,ioos:station:TABS:H:1,2005-08-29T19:30:00Z,27.8674,-96.5433,4.0,3.355964839,257.7860297,4.55,'11111222,11111222,11111222' 
TABS,ioos:station:TABS:H:1,2005-08-29T20:00:00Z,27.8674,-96.5433,4.0,4.260046948,233.3991802,5.44,'11111222,11111222,11111222' 
TABS,ioos:station:TABS:H:1,2005-08-29T20:30:00Z,27.8674,-96.5433,4.0,3.762246669,231.1500109,4.82,'11111222,11111222,11111222' 
TABS,ioos:station:TABS:H:1,2005-08-29T21:00:00Z,27.8674,-96.5433,4.0,3.649657518,223.6678885,4.5,'11111222,11111222,11111222' 
TABS,ioos:station:TABS:H:1,2005-08-29T21:30:00Z,27.8674,-96.5433,4.0,3.294601645,209.0547466,4.3,'11111222,11111222,11111222' 
TABS,ioos:station:TABS:H:1,2005-08-29T22:00:00Z,27.8674,-96.5433,4.0,3.081460693,205.9831157,3.91,'11111222,11111222,11111222' 
TABS,ioos:station:TABS:H:1,2005-08-29T22:30:00Z,27.8674,-96.5433,4.0,2.994461554,210.5044892,4.05,'11111222,11111222,11111222' 
TABS,ioos:station:TABS:H:1,2005-08-29T23:00:00Z,27.8674,-96.5433,4.0,3.464390278,195.4003454,4.06,'11111222,11111222,11111222' 
TABS,ioos:station:TABS:H:1,2005-08-29T23:30:00Z,27.8674,-96.5433,4.0,2.597633538,196.551529,3.62,'11111222,11111222,11111222' 
TABS,ioos:station:TABS:H:1,2005-08-30T00:00:00Z,27.8674,-96.5433,4.0,2.545309411,195.7291268,3.17,'11111222,11111222,11111222' 
TABS,ioos:station:TABS:H:1,2005-08-30T00:30:00Z,27.8674,-96.5433,4.0,1.621141573,240.4305378,2.63,'11111222,11111222,11111222' 
TABS,ioos:station:TABS:H:1,2005-08-30T01:00:00Z,27.8674,-96.5433,4.0,5.660565343,288.7549898,7.3,'11111222,11111222,11111222' 
TABS,ioos:station:TABS:H:1,2005-08-30T01:30:00Z,27.8674,-96.5433,4.0,3.703538848,284.2238185,4.36,'11111222,11111222,11111222' 
TABS,ioos:station:TABS:H:1,2005-08-30T02:00:00Z,27.8674,-96.5433,4.0,3.114883625,288.1440674,3.65,'11111222,11111222,11111222' 
TABS,ioos:station:TABS:H:1,2005-08-30T02:30:00Z,27.8674,-96.5433,4.0,2.748745168,299.1760108,3.24,'11111222,11111222,11111222' 
TABS,ioos:station:TABS:H:1,2005-08-30T03:00:00Z,27.8674,-96.5433,4.0,2.395704489,278.4006629,2.94,'11111222,11111222,11111222' 
TABS,ioos:station:TABS:H:1,2005-08-30T03:30:00Z,27.8674,-96.5433,4.0,2.031600354,253.7059906,2.89,'11111222,11111222,11111222' 
TABS,ioos:station:TABS:H:1,2005-08-30T04:00:00Z,27.8674,-96.5433,4.0,3.682662081,230.9515136,4.54,'11111222,11111222,11111222' 
TABS,ioos:station:TABS:H:1,2005-08-30T04:30:00Z,27.8674,-96.5433,4.0,4.462488095,232.2827576,5.94,'11111222,11111222,11111222' 
TABS,ioos:station:TABS:H:1,2005-08-30T05:00:00Z,27.8674,-96.5433,4.0,5.26157771,231.0171579,6.48,'11111222,11111222,11111222' 
TABS,ioos:station:TABS:H:1,2005-08-30T05:30:00Z,27.8674,-96.5433,4.0,5.422195127,236.280704,6.45,'11111222,11111222,11111222' 
TABS,ioos:station:TABS:H:1,2005-08-30T06:00:00Z,27.8674,-96.5433,4.0,5.284174486,239.6499751,6.4,'11111222,11111222,11111222' 
TABS,ioos:station:TABS:H:1,2005-08-30T06:30:00Z,27.8674,-96.5433,4.0,4.609772229,245.658967,5.59,'11111222,11111222,11111222' 
TABS,ioos:station:TABS:H:1,2005-08-30T07:00:00Z,27.8674,-96.5433,4.0,4.566683698,242.4811069,5.42,'11111222,11111222,11111222' 
TABS,ioos:station:TABS:H:1,2005-08-30T07:30:00Z,27.8674,-96.5433,4.0,4.458990917,244.0671338,5.28,'11111222,11111222,11111222' 
TABS,ioos:station:TABS:H:1,2005-08-30T08:00:00Z,27.8674,-96.5433,4.0,5.156403786,243.6337808,5.99,'11111222,11111222,11111222' 
TABS,ioos:station:TABS:H:1,2005-08-30T08:30:00Z,27.8674,-96.5433,4.0,5.054750241,255.3314734,6.28,'11111222,11111222,11111222' 
TABS,ioos:station:TABS:H:1,2005-08-30T09:00:00Z,27.8674,-96.5433,4.0,4.334339627,248.7632333,5.2,'11111222,11111222,11111222' 
TABS,ioos:station:TABS:H:1,2005-08-30T09:30:00Z,27.8674,-96.5433,4.0,5.073854551,247.275951,5.91,'11111222,11111222,11111222' 
TABS,ioos:station:TABS:H:1,2005-08-30T10:00:00Z,27.8674,-96.5433,4.0,5.032891813,257.8416624,6.07,'11111222,11111222,11111222' 
TABS,ioos:station:TABS:H:1,2005-08-30T10:30:00Z,27.8674,-96.5433,4.0,3.130654884,288.4349057,3.85,'11111222,11111222,11111222' 
TABS,ioos:station:TABS:H:1,2005-08-30T11:00:00Z,27.8674,-96.5433,4.0,2.589903473,300.1289722,3.42,'11111222,11111222,11111222' 
TABS,ioos:station:TABS:H:1,2005-08-30T11:30:00Z,27.8674,-96.5433,4.0,3.378313189,294.6684752,3.93,'11111222,11111222,11111222' 
TABS,ioos:station:TABS:H:1,2005-08-30T12:00:00Z,27.8674,-96.5433,4.0,3.876828601,273.4011669,4.84,'11111222,11111222,11111222' 
TABS,ioos:station:TABS:H:1,2005-08-30T12:30:00Z,27.8674,-96.5433,4.0,4.276037886,260.7139259,5.39,'11111222,11111222,11111222' 
TABS,ioos:station:TABS:H:1,2005-08-30T13:00:00Z,27.8674,-96.5433,4.0,4.1363994,273.1875062,5.78,'11111222,11111222,11111222' 
TABS,ioos:station:TABS:H:1,2005-08-30T13:30:00Z,27.8674,-96.5433,4.0,4.165729228,300.7513916,5.15,'11111222,11111222,11111222' 
TABS,ioos:station:TABS:H:1,2005-08-30T14:00:00Z,27.8674,-96.5433,4.0,3.278673512,295.4707987,4.93,'11111222,11111222,11111222' 
TABS,ioos:station:TABS:H:1,2005-08-30T14:30:00Z,27.8674,-96.5433,4.0,2.545309411,285.7289163,3.59,'11111222,11111222,11111222' 
TABS,ioos:station:TABS:H:1,2005-08-30T15:00:00Z,27.8674,-96.5433,4.0,2.669175903,317.8850327,3.43,'11111222,11111222,11111222' 
TABS,ioos:station:TABS:H:1,2005-08-30T15:30:00Z,27.8674,-96.5433,4.0,1.070560601,310.8333996,1.93,'11111222,11111222,11111222' 
TABS,ioos:station:TABS:H:1,2005-08-30T16:00:00Z,27.8674,-96.5433,4.0,0.824621125,345.9635789,1.34,'11111222,11111222,11111222' 
TABS,ioos:station:TABS:H:1,2005-08-30T16:30:00Z,27.8674,-96.5433,4.0,1.308166656,11.91097712,1.91,'11111222,11111222,11111222' 
TABS,ioos:station:TABS:H:1,2005-08-30T17:00:00Z,27.8674,-96.5433,4.0,1.634166454,9.865573414,2.36,'11111222,11111222,11111222' 
TABS,ioos:station:TABS:H:1,2005-08-30T17:30:00Z,27.8674,-96.5433,4.0,2.001924074,19.2492704,2.49,'11111222,11111222,11111222' 
TABS,ioos:station:TABS:H:1,2005-08-30T18:00:00Z,27.8674,-96.5433,4.0,1.537595525,10.87121705,2.37,'11111222,11111222,11111222' 
TABS,ioos:station:TABS:H:1,2005-08-30T18:30:00Z,27.8674,-96.5433,4.0,0.920217366,42.3571452,1.56,'11111222,11111222,11111222' 
TABS,ioos:station:TABS:H:1,2005-08-30T19:00:00Z,27.8674,-96.5433,4.0,1.349518433,50.41154081,2.37,'11111222,11111222,11111222' 
TABS,ioos:station:TABS:H:1,2005-08-30T19:30:00Z,27.8674,-96.5433,4.0,2.179472413,70.15127948,3.25,'11111222,11111222,11111222' 
TABS,ioos:station:TABS:H:1,2005-08-30T20:00:00Z,27.8674,-96.5433,4.0,3.026615271,93.78930194,4.06,'11111222,11111222,11111222' 
TABS,ioos:station:TABS:H:1,2005-08-30T20:30:00Z,27.8674,-96.5433,4.0,2.817108447,94.07153759,3.66,'11111222,11111222,11111222' 
TABS,ioos:station:TABS:H:1,2005-08-30T21:00:00Z,27.8674,-96.5433,4.0,3.524599268,154.4530573,4.54,'11111222,11111222,11111222' 
TABS,ioos:station:TABS:H:1,2005-08-30T21:30:00Z,27.8674,-96.5433,4.0,3.6138622,141.2909718,4.3,'11111222,11111222,11111222' 
TABS,ioos:station:TABS:H:1,2005-08-30T22:00:00Z,27.8674,-96.5433,4.0,4.131464631,133.2349129,5.05,'11111222,11111222,11111222' 
TABS,ioos:station:TABS:H:1,2005-08-30T22:30:00Z,27.8674,-96.5433,4.0,4.511695912,135.7187187,5.74,'11111222,11111222,11111222' 
TABS,ioos:station:TABS:H:1,2005-08-30T23:00:00Z,27.8674,-96.5433,4.0,5.444639566,137.9035892,6.39,'11111222,11111222,11111222' 
TABS,ioos:station:TABS:H:1,2005-08-30T23:30:00Z,27.8674,-96.5433,4.0,6.12738933,147.1920226,7.48,'11111222,11111222,11111222' 
TABS,ioos:station:TABS:H:1,2005-08-31T00:00:00Z,27.8674,-96.5433,4.0,6.115692929,146.6739987,7.67,'11111222,11111222,11111222' 
TABS,ioos:station:TABS:H:1,2005-08-31T00:30:00Z,27.8674,-96.5433,4.0,5.941211998,141.9730687,6.99,'11111222,11111222,11111222' 
TABS,ioos:station:TABS:H:1,2005-08-31T01:00:00Z,27.8674,-96.5433,4.0,6.602984174,144.119653,7.72,'11111222,11111222,11111222' 
TABS,ioos:station:TABS:H:1,2005-08-31T01:30:00Z,27.8674,-96.5433,4.0,7.1841005,149.1869801,8.52,'11111222,11111222,11111222' 
TABS,ioos:station:TABS:H:1,2005-08-31T02:00:00Z,27.8674,-96.5433,4.0,6.751784949,156.8908155,7.92,'11111222,11111222,11111222' 
TABS,ioos:station:TABS:H:1,2005-08-31T02:30:00Z,27.8674,-96.5433,4.0,6.719598202,148.510088,7.83,'11111222,11111222,11111222' 
TABS,ioos:station:TABS:H:1,2005-08-31T03:00:00Z,27.8674,-96.5433,4.0,6.431337341,155.6669078,7.67,'11111222,11111222,11111222' 
TABS,ioos:station:TABS:H:1,2005-08-31T03:30:00Z,27.8674,-96.5433,4.0,5.951546018,158.3061136,7.13,'11111222,11111222,11111222' 
TABS,ioos:station:TABS:H:1,2005-08-31T04:00:00Z,27.8674,-96.5433,4.0,5.99610707,158.2698283,7.12,'11111222,11111222,11111222' 
TABS,ioos:station:TABS:H:1,2005-08-31T04:30:00Z,27.8674,-96.5433,4.0,6.214861221,162.58573,7.27,'11111222,11111222,11111222' 
TABS,ioos:station:TABS:H:1,2005-08-31T05:00:00Z,27.8674,-96.5433,4.0,6.623903683,166.4675004,7.64,'11111222,11111222,11111222' 
TABS,ioos:station:TABS:H:1,2005-08-31T05:30:00Z,27.8674,-96.5433,4.0,6.626680919,166.7399183,7.73,'11111222,11111222,11111222' 
TABS,ioos:station:TABS:H:1,2005-08-31T06:00:00Z,27.8674,-96.5433,4.0,6.278096845,169.3525489,7.67,'11111222,11111222,11111222' 
TABS,ioos:station:TABS:H:1,2005-08-31T06:30:00Z,27.8674,-96.5433,4.0,5.871771453,174.0371858,7.04,'11111222,11111222,11111222' 
TABS,ioos:station:TABS:H:1,2005-08-31T07:00:00Z,27.8674,-96.5433,4.0,5.990008347,180.0958625,7.28,'11111222,11111222,11111222' 
TABS,ioos:station:TABS:H:1,2005-08-31T07:30:00Z,27.8674,-96.5433,4.0,6.430381015,180.6239331,7.64,'11111222,11111222,11111222' 
TABS,ioos:station:TABS:H:1,2005-08-31T08:00:00Z,27.8674,-96.5433,4.0,6.080008224,180.0944466,7.3,'11111222,11111222,11111222' 
TABS,ioos:station:TABS:H:1,2005-08-31T08:30:00Z,27.8674,-96.5433,4.0,5.647530434,186.6092738,6.54,'11111222,11111222,11111222' 
TABS,ioos:station:TABS:H:1,2005-08-31T09:00:00Z,27.8674,-96.5433,4.0,6.017707205,192.2811361,7.08,'11111222,11111222,11111222' 
TABS,ioos:station:TABS:H:1,2005-08-31T09:30:00Z,27.8674,-96.5433,4.0,6.109116139,189.2312323,7.15,'11111222,11111222,11111222' 
TABS,ioos:station:TABS:H:1,2005-08-31T10:00:00Z,27.8674,-96.5433,4.0,6.321218237,189.7456337,7.4,'11111222,11111222,11111222' 
TABS,ioos:station:TABS:H:1,2005-08-31T10:30:00Z,27.8674,-96.5433,4.0,6.174933198,192.4384109,7.27,'11111222,11111222,11111222' 
TABS,ioos:station:TABS:H:1,2005-08-31T11:00:00Z,27.8674,-96.5433,4.0,5.594801158,196.2972443,6.82,'11111222,11111222,11111222' 
TABS,ioos:station:TABS:H:1,2005-08-31T11:30:00Z,27.8674,-96.5433,4.0,5.597856733,193.6392306,7.28,'11111222,11111222,11111222' 
TABS,ioos:station:TABS:H:1,2005-08-31T12:00:00Z,27.8674,-96.5433,4.0,5.439944853,199.4343575,6.52,'11111222,11111222,11111222' 
TABS,ioos:station:TABS:H:1,2005-08-31T12:30:00Z,27.8674,-96.5433,4.0,5.806728855,212.2669977,6.65,'11111222,11111222,11111222' 
TABS,ioos:station:TABS:H:1,2005-08-31T13:00:00Z,27.8674,-96.5433,4.0,5.397490157,213.1308042,6.58,'11111222,11111222,11111222' 
TABS,ioos:station:TABS:H:1,2005-08-31T13:30:00Z,27.8674,-96.5433,4.0,4.548549219,209.2137988,5.79,'11111222,11111222,11111222' 
TABS,ioos:station:TABS:H:1,2005-08-31T14:00:00Z,27.8674,-96.5433,4.0,4.161598251,202.3128954,5.04,'11111222,11111222,11111222' 
TABS,ioos:station:TABS:H:1,2005-08-31T14:30:00Z,27.8674,-96.5433,4.0,3.70114847,190.4296486,4.8,'11111222,11111222,11111222' 
TABS,ioos:station:TABS:H:1,2005-08-31T15:00:00Z,27.8674,-96.5433,4.0,3.482944157,184.9414378,4.21,'11111222,11111222,11111222' 